This demonstration page uses our WeatherBlox Daily Observations layout. Learn more.

Left ArrowRight Arrow

Hourly Observations for July 21, 2021

Temp ( °F °C ) Dew Point ( °F °C ) Humidity (%) Winds ( mph kmh ) Pressure ( in mb ) Visibility ( mi km ) Precip ( " mm )
12:15 am 00:15 Clear 65 18.5 60 15.6 83 83 SE 6 9 30.06 1018 10 16 0.00 0.00
12:35 am 00:35 Clear 65 18.5 60 15.7 84 84 SE 7 11 30.06 1018 10 16 0.00 0.00
12:55 am 00:55 Clear 66 18.7 61 16.1 85 85 SE 7 11 30.07 1018 10 16 0.00 0.00
1:15 am 01:15 Clear 65 18.5 62 16.5 88 88 SSE 5 7 30.07 1018 10 16 0.00 0.00
1:35 am 01:35 Clear 65 18.2 62 16.5 90 90 SE 6 9 30.06 1018 10 16 0.00 0.00
1:55 am 01:55 Clear 65 18.1 62 16.5 90 90 SE 6 9 30.06 1018 10 16 0.00 0.00
2:15 am 02:15 Clear 64 17.8 61 16.2 90 90 SE 6 9 30.06 1018 10 16 0.00 0.00
2:35 am 02:35 Clear 64 17.8 61 16.3 91 91 SE 6 9 30.06 1018 10 16 0.00 0.00
2:55 am 02:55 Clear 64 17.7 61 16.3 92 92 SSE 7 11 30.06 1018 10 16 0.00 0.00
3:15 am 03:15 Clear 64 17.8 62 16.5 92 92 SSE 6 9 30.06 1018 10 16 0.00 0.00
3:35 am 03:35 Clear 64 17.8 62 16.5 92 92 SSE 7 11 30.06 1018 10 16 0.00 0.00
3:55 am 03:55 Clear 65 18.1 62 16.7 92 92 SSE 7 11 30.05 1018 10 16 0.00 0.00
4:15 am 04:15 Clear 65 18.3 62 16.7 90 90 S 7 11 30.05 1018 10 16 0.00 0.00
4:35 am 04:35 Clear 65 18.3 62 16.7 90 90 S 7 11 30.05 1018 10 16 0.00 0.00
4:55 am 04:55 Clear 65 18.1 62 16.5 90 90 S 6 9 30.05 1018 10 16 0.00 0.00
5:15 am 05:15 Clear 64 18 62 16.5 91 91 S 6 9 30.05 1018 10 16 0.00 0.00
5:35 am 05:35 Clear 64 17.8 61 16.3 91 91 S 6 9 30.06 1018 10 16 0.00 0.00
5:55 am 05:55 Clear 64 17.7 61 16.2 91 91 SSE 5 7 30.07 1018 10 16 0.00 0.00
6:15 am 06:15 Clear 64 17.6 61 16.1 91 91 S 5 7 30.07 1018 10 16 0.00 0.00
6:35 am 06:35 Sunny 64 17.5 61 16.1 92 92 S 6 9 30.07 1018 10 16 0.00 0.00
6:55 am 06:55 Sunny 64 17.7 61 16.1 90 90 S 7 11 30.07 1018 7 11 0.00 0.00
7:15 am 07:15 Sunny 65 18.1 61 16.3 89 89 S 7 11 30.06 1018 10 16 0.00 0.00
7:35 am 07:35 Sunny 66 18.7 62 16.6 88 88 S 8 13 30.07 1018 10 16 0.00 0.00
7:55 am 07:55 Sunny 66 19.1 62 16.8 87 87 S 9 15 30.05 1018 10 16 0.00 0.00
8:15 am 08:15 Sunny 67 19.3 63 17 87 87 S 8 13 30.06 1018 10 16 0.00 0.00
8:35 am 08:35 Sunny 69 20.5 63 17.1 81 81 S 10 17 30.06 1018 10 16 0.00 0.00
8:55 am 08:55 Sunny 70 21.2 63 17.2 78 78 SSW 10 17 30.06 1018 10 16 0.00 0.00
9:15 am 09:15 Sunny 71 21.6 63 17 75 75 S 10 17 30.05 1018 10 16 0.00 0.00
9:35 am 09:35 Sunny 73 22.6 63 17.1 71 71 S 10 17 30.05 1017 10 16 0.00 0.00
9:55 am 09:55 Sunny 73 23 63 17.3 70 70 S 10 17 30.03 1017 10 16 0.00 0.00
10:15 am 10:15 Sunny 73 22.9 63 17.2 70 70 SSW 10 17 30.04 1017 10 16 0.00 0.00
10:35 am 10:35 Sunny 74 23.6 63 17.3 68 68 S 10 17 30.03 1017 10 16 0.00 0.00
10:55 am 10:55 Sunny 76 24.6 63 17.3 64 64 S 13 20 30.02 1017 10 16 0.00 0.00
11:15 am 11:15 Sunny 77 25.1 64 17.5 63 63 S 14 22 30.02 1016 10 16 0.00 0.00
11:35 am 11:35 Sunny 78 25.6 63 17.3 60 60 S 13 20 30.01 1016 10 16 0.00 0.00
11:55 am 11:55 Sunny 79 26.1 62 16.7 56 56 SSW 14 22 30.02 1016 10 16 0.00 0.00
12:15 pm 12:15 Sunny 80 26.5 62 16.8 55 55 SSW 14 22 29.99 1016 10 16 0.00 0.00
12:35 pm 12:35 Sunny 80 26.7 63 17 55 55 SSE 13 20 29.99 1016 10 16 0.00 0.00
12:55 pm 12:55 Sunny 81 27.1 62 16.9 54 54 S 16 26 29.98 1015 10 16 0.00 0.00
1:15 pm 13:15 Partly Cloudy 81 27.3 62 16.5 52 52 S 15 24 29.98 1015 10 16 0.00 0.00
1:35 pm 13:35 Partly Cloudy 82 27.8 61 16.2 49 49 S 14 22 29.97 1015 10 16 0.00 0.00
1:55 pm 13:55 Partly Cloudy 82 27.6 60 15.5 48 48 S 17 28 29.96 1014 10 16 0.00 0.00
2:15 pm 14:15 Sunny 83 28.2 61 16.2 48 48 S 16 26 29.95 1014 10 16 0.00 0.00
2:35 pm 14:35 Sunny 82 28 60 15.5 47 47 SSE 15 24 29.95 1014 10 16 0.00 0.00
2:55 pm 14:55 Sunny 82 27.7 59 15.2 46 46 S 16 26 29.94 1014 10 16 0.00 0.00
3:15 pm 15:15 Sunny 81 27.2 60 15.7 49 49 S 14 22 29.95 1014 10 16 0.00 0.00
3:35 pm 15:35 Sunny 83 28.2 61 16.2 48 48 S 14 22 29.94 1014 10 16 0.00 0.00
3:55 pm 15:55 Sunny 82 28 60 15.7 47 47 S 15 24 29.93 1014 10 16 0.00 0.00
4:15 pm 16:15 Sunny 83 28.6 60 15.3 44 44 S 14 22 29.93 1013 10 16 0.00 0.00
4:35 pm 16:35 Sunny 83 28.5 60 15.6 46 46 SSE 16 26 29.93 1013 10 16 0.00 0.00
4:55 pm 16:55 Sunny 83 28.5 59 15 44 44 S 15 24 29.92 1013 10 16 0.00 0.00
5:15 pm 17:15 Sunny 84 28.8 58 14.4 41 41 S 15 24 29.92 1013 10 16 0.00 0.00
5:35 pm 17:35 Sunny 82 28 60 15.7 47 47 S 13 20 29.92 1013 10 16 0.00 0.00
5:55 pm 17:55 Sunny 82 28 60 15.8 47 47 S 10 17 29.91 1013 10 16 0.00 0.00
6:15 pm 18:15 Sunny 82 27.5 62 16.6 51 51 S 8 13 29.92 1013 10 16 0.00 0.00
6:35 pm 18:35 Sunny 82 27.9 61 16.1 49 49 SSE 8 13 29.90 1013 10 16 0.00 0.00
6:55 pm 18:55 Sunny 82 27.6 62 16.8 52 52 SSE 6 9 29.91 1013 10 16 0.00 0.00
7:15 pm 19:15 Sunny 81 27 62 16.7 53 53 SSE 8 13 29.91 1013 10 16 0.00 0.00
7:35 pm 19:35 Sunny 80 26.4 62 16.6 55 55 SSE 7 11 29.92 1013 10 16 0.00 0.00
7:55 pm 19:55 Sunny 78 25.6 61 16.3 57 57 SSE 7 11 29.92 1013 10 16 0.00 0.00
8:15 pm 20:15 Sunny 76 24.7 62 16.4 60 60 SSE 7 11 29.94 1014 10 16 0.00 0.00
8:35 pm 20:35 Sunny 75 23.7 62 16.4 64 64 SE 6 9 29.95 1014 10 16 0.00 0.00
8:55 pm 20:55 Sunny 72 22.2 62 16.5 70 70 SSE 7 11 29.96 1015 10 16 0.00 0.00
9:15 pm 21:15 Clear 71 21.6 61 16 71 71 SSE 6 9 29.96 1015 10 16 0.00 0.00
9:35 pm 21:35 Clear 69 20.8 61 16 74 74 SSE 6 9 29.97 1015 10 16 0.00 0.00
9:55 pm 21:55 Clear 68 20.2 61 16.1 77 77 SSE 6 9 29.99 1015 10 16 0.00 0.00
10:15 pm 22:15 Clear 67 19.5 61 16 80 80 SSE 5 7 29.99 1016 10 16 0.00 0.00
10:35 pm 22:35 Clear 68 19.8 60 15.7 77 77 SSE 6 9 30.00 1016 10 16 0.00 0.00
10:55 pm 22:55 Clear 68 20 60 15.6 76 76 SSE 6 9 30.01 1016 10 16 0.00 0.00
11:15 pm 23:15 Clear 68 20 60 15.3 74 74 SSE 7 11 30.00 1016 10 16 0.00 0.00
11:35 pm 23:35 Clear 68 20.2 59 15.2 73 73 SSE 7 11 30.01 1016 10 16 0.00 0.00
11:55 pm 23:55 Clear 68 20 60 15.3 74 74 SSE 8 13 30.00 1016 10 16 0.00 0.00

Powered by AerisWeather